STARLINK-32919, 63150

Orbit data source: Space-Track

STARLINK-32919, 63150 is a payload satellite owned by SpaceX/Seattle (US) in LEO that was launched on Mon, 03 Mar 2025 UTC via an FALCON 9 launch vehicle from the Air Force Eastern Test Range (AFETR). Payload-class satellites include a variety of spacecraft equipped with specific instruments for various scientific and technological missions. These include communications satellites like Starlink; space stations such as the ISS; scientific satellites like the Hubble; Earth observation satellites from companies like Planet Labs, Umbra, and HawkEye 360; GPS; miniature CubeSats for education and research; and military/defense satellites.

Loading next visibility...
Identifier
63150, 2025-043U
Orbit
LEO
Country
Flag of USUS
Related business
Manufacturer
SpaceX/Seattle
Mission
Operational Commercial Communications
Bus & Motor
STARLINK V2M, Unknown motor
Mass
730 kg wet, ~700 kg dry
Launch date (UTC)
2025-03-03 (8 months ago)
Launch vehicle
FALCON 9
Launch site
Air Force Eastern Test Range (AFETR)
Object type
Payload
Rocket body
Debris
Shape & HBR
Box + 2 Pan, 17.7 m
Radar Cross Section
33.884 m², Large (>1 m²)

Expand to show TLE details & history
Last TLE update: 1 day ago

TLE from 1 day ago
0 STARLINK-32919
1 63150U 25043U   25290.95872762  .00044374  00000-0  16110-2 0  9996
2 63150  43.0001 102.2824 0001716 275.6067  84.4589 15.27606548 35530
Epoch: 2025-10-17T23:00Z
TLE epoch observation values (Epoch: 2025-10-17T23:00:34.066Z)
Latitude
-0.00001°
Longitude
90.44382°
Altitude
482.632 km
Speed
7.626 km/s
True Right ascension
06h 49m 07s
True Declination
0° 00' 00"
Sunlit
Object was in daylight at epoch
Visualization orbit readout
Latitude
Unknown
Longitude
Unknown
Altitude
Unknown
Speed
Unknown
Apparent Right ascension
Unknown
Apparent Declination
Unknown
Sunlit
N/A
Visualization observer readout
Local Sidereal Time
18:34:07
Azimuth
Unknown
Elevation
Unknown
Doppler factor
Unknown
Orbital elements
Apogee altitude
486.092 km
Perigee altitude
483.737 km
Semi-major axis
6,863.052 km
Eccentricity
0.00017
Inclination
43.0001°
RAAN
102.2824°
Arg. of periapsis
275.6067°
True anomaly
84.47847°
Mean anomaly
84.4589°
Eccentric anomaly
84.46869°
Mean motion
3.8174 °/min
Orbital period
94.31 mins
BSTAR
0.001611
Loading maneuver chart data...
Computing Atmospheric mass density...
Loading historical data...
Loading historical data...
Loading historical data...
Loading historical data...
Loading historical data...
Loading historical data...
Loading historical data...

Documentation

Showing up to 5 results
|